Location: Haskovo
(41.9227°N, 25.5707°E)
Time: 21:28:31
(UTC+03:00)

ISS - Visible Passes

Search period start: 19 May 2025 00:00
Search period end: 29 May 2025 00:00
Orbit: 416 x 419 km, 51.6° (Epoch: 19 May)

Date Brightness Start Highest point End Pass type
(mag) Time Alt. Az. Time Alt. Az. Time Alt. Az.
19 May -1.4 00:08:11 10° NW 00:09:42 24° NW 00:09:42 24° NW visible
19 May -1.0 21:43:41 10° NW 21:45:53 16° N 21:48:05 10° NE visible
19 May -2.4 23:20:16 10° NW 23:23:18 35° NNE 23:23:18 35° NNE visible
20 May -1.9 22:32:20 10° NW 22:35:14 26° NNE 22:36:54 18° ENE visible
21 May -1.2 00:08:53 10° WNW 00:09:48 17° WNW 00:09:48 17° WNW visible
21 May -1.5 21:44:23 10° NW 21:47:01 21° NNE 21:49:38 10° ENE visible
21 May -2.9 23:20:49 10° NW 23:23:25 50° NW 23:23:25 50° NW visible
22 May -3.2 22:32:48 10° NW 22:36:06 50° NNE 22:37:03 36° E visible
23 May -2.5 21:44:50 10° NW 21:47:56 34° NNE 21:50:41 12° E visible
23 May -2.1 23:21:37 10° WNW 23:23:36 27° W 23:23:36 27° W visible
24 May -3.6 22:33:22 10° WNW 22:36:42 61° SW 22:37:16 50° S visible
25 May -3.7 21:45:15 10° NW 21:48:37 79° NE 21:50:58 18° ESE visible
25 May -1.0 23:23:24 10° WSW 23:23:53 11° WSW 23:23:53 11° WSW visible
26 May -2.0 22:34:23 10° W 22:37:01 21° SW 22:37:37 20° SSW visible
27 May -2.7 21:45:54 10° WNW 21:49:01 36° SW 21:51:23 15° SSE visible
